Theta_e
341 348 347 345 345 344 343 341 337 333 332 333 339 341 341 339 337 335 334 333 329 328 328 333 336 336 336 337 338 337 335 334 332 330 325 319 317 324 330 331 331 332 331
343 349 345 345 345 345 343 340 338 335 334 335 335 339 340 339 337 336 332 332 329 329 327 330 332 333 337 337 337 336 335 333 330 327 321 326 326 323 330 329 329 331 324
345 350 347 344 346 343 343 339 335 334 331 335 336 338 340 337 336 334 331 328 331 328 327 328 330 329 329 330 330 331 331 331 329 322 322 327 326 323 327 331 331 329 329
344 348 348 345 344 342 343 338 336 334 333 336 338 337 334 335 333 331 330 331 331 327 327 327 328 328 328 329 330 329 328 325 322 322 328 324 324 323 319 330 332 332 333
343 347 349 343 344 343 343 339 336 335 330 337 335 334 330 329 328 329 331 331 330 326 326 328 329 330 329 328 330 332 332 331 328 331 330 330 329 329 324 327 329 331 333
343 347 348 344 343 343 342 338 336 333 331 335 334 330 332 333 333 333 333 332 329 328 325 327 330 332 331 330 332 330 330 329 329 331 331 331 332 331 329 333 332 329 330
341 346 349 345 345 343 342 337 335 333 332 332 333 331 332 335 334 333 335 333 330 329 327 329 333 333 333 332 333 333 329 328 332 333 332 332 332 331 332 333 332 333 334
340 344 348 347 345 343 341 338 335 334 332 333 333 332 334 333 330 333 334 333 331 331 331 332 333 333 333 333 333 331 331 330 332 331 331 331 331 330 333 334 336 335 337
340 343 345 348 346 344 340 339 336 335 331 330 331 331 334 332 329 335 335 334 333 330 328 332 333 333 332 331 330 329 329 328 329 331 329 329 330 327 333 332 332 331 333
340 342 343 345 348 345 343 338 335 333 331 326 325 330 331 331 328 333 334 334 332 327 330 332 332 331 331 330 328 327 326 325 325 325 324 327 322 327 330 329 328 329 332
340 341 341 342 345 344 344 340 335 334 333 332 328 326 326 331 330 330 334 329 327 330 331 331 331 330 327 323 322 322 322 322 321 319 319 319 317 325 326 327 330 328 329
340 340 341 341 343 343 343 342 339 337 338 335 334 332 331 329 329 330 329 326 329 330 331 332 329 322 321 322 321 319 317 314 314 315 317 315 319 323 328 325 324 327 324
338 339 341 342 342 342 342 342 340 337 336 336 335 334 329 327 326 329 330 329 332 332 328 324 321 318 317 315 314 313 310 310 311 313 315 312 322 324 323 321 322 321 321
336 339 340 342 343 343 343 341 340 338 337 337 336 334 329 327 329 329 331 332 329 325 323 321 318 315 312 309 308 308 307 308 309 310 313 316 319 319 318 319 317 316 317
334 336 340 341 343 344 344 342 341 339 337 337 336 335 330 329 329 330 331 326 322 320 319 317 314 310 307 306 305 306 305 306 306 308 310 312 314 314 313 313 312 312 312
332 333 337 340 342 343 343 343 342 340 338 337 336 335 331 331 331 331 325 320 319 317 313 311 307 305 305 304 304 304 304 304 305 306 307 307 307 307 307 307 306 306 305
327 329 332 337 340 342 342 343 341 340 338 337 336 335 332 332 331 324 319 316 314 311 308 306 306 305 304 303 303 303 302 303 303 305 304 305 303 301 298 297 296 297 298
327 327 326 329 336 341 341 342 341 340 338 337 336 334 334 332 326 323 321 316 310 307 306 305 304 304 303 303 303 303 302 303 302 303 301 301 301 300 299 298 296 294 295
326 326 326 325 328 334 341 341 340 340 338 336 337 336 332 325 326 327 321 313 307 305 304 302 302 302 302 301 301 300 301 302 302 301 301 300 300 299 299 298 296 295 295
324 325 325 325 325 327 335 339 340 340 338 337 335 328 325 326 327 323 314 307 305 304 303 302 302 301 300 300 300 301 303 304 302 302 301 300 299 298 297 297 296 295 295
322 324 324 325 327 329 333 339 340 338 335 329 323 323 325 326 320 313 307 305 304 303 302 301 301 300 300 298 301 302 302 301 303 302 303 300 299 297 296 296 295 295 294
323 324 324 325 328 332 336 339 338 332 323 319 315 322 324 321 314 307 306 304 303 301 301 300 300 300 299 297 298 300 304 302 301 300 300 298 298 296 296 295 294 294 293
323 323 324 326 330 334 337 335 328 319 314 310 313 315 316 313 306 305 304 303 302 301 300 299 299 298 299 298 296 297 301 303 298 299 299 298 297 297 295 294 294 293 293
322 324 325 328 333 334 335 330 321 318 313 310 309 308 306 304 303 303 302 301 301 300 299 297 297 297 297 298 297 295 295 295 297 298 298 297 297 295 295 295 294 293 292
319 324 325 329 333 334 333 326 323 323 318 310 304 302 301 301 301 301 300 300 299 298 297 297 296 296 295 296 295 295 295 295 295 295 296 297 296 295 294 294 293 293 292
316 323 327 331 332 333 330 324 324 324 312 304 300 300 300 300 300 299 299 298 298 297 296 295 295 295 294 294 294 294 294 294 294 294 295 295 294 294 294 293 293 292 291
Wind_Speed
14 20 21 17 17 15 13 11 9 7 7 7 7 7 9 10 9 8 7 8 9 9 7 7 9 10 4 1 9 8 5 4 5 7 10 10 8 7 6 4 2 5 3
20 21 22 19 18 15 14 12 10 7 5 5 7 9 9 10 10 8 7 7 8 8 8 7 8 8 11 11 10 8 6 5 6 9 8 7 7 7 6 5 2 5 6
19 21 21 20 20 17 15 12 9 6 5 7 8 9 11 10 9 8 5 7 8 9 9 8 8 7 6 7 6 5 5 5 7 8 7 5 4 8 6 5 6 4 5
18 20 19 20 18 16 14 11 9 7 8 8 10 11 10 9 7 7 7 7 7 9 10 9 9 8 7 5 6 6 5 6 7 6 7 5 5 6 6 6 6 6 7
17 17 19 20 18 15 13 10 9 8 8 9 12 9 10 9 9 6 5 5 5 8 8 9 8 8 7 6 5 5 6 6 7 6 6 5 6 6 8 6 6 7 7
16 16 17 18 18 15 13 10 9 9 9 12 12 7 7 5 3 3 3 1 2 5 6 6 6 6 6 6 5 4 3 3 5 5 6 6 5 8 9 9 8 8 9
16 15 15 18 18 15 12 11 9 9 10 10 12 9 5 5 3 4 6 4 1 3 4 5 5 4 4 4 4 4 4 4 6 5 6 7 7 11 9 9 9 11 10
17 15 15 18 17 14 11 11 10 10 10 10 11 8 4 3 0 2 9 7 3 2 3 3 4 4 4 4 4 4 6 7 7 7 7 8 10 11 10 11 12 11 12
16 15 16 16 17 14 11 11 10 10 9 12 12 9 6 3 3 8 10 7 5 2 2 3 3 2 3 4 5 6 7 8 6 8 7 5 8 10 9 10 10 11 11
14 15 16 18 17 16 14 13 11 11 9 9 12 12 9 5 3 6 5 6 4 2 2 1 3 3 4 4 5 5 6 6 7 7 7 6 11 9 9 9 10 9 10
13 15 16 18 18 17 16 15 13 13 11 9 9 11 9 6 5 5 7 4 4 2 0 2 4 4 4 6 7 8 7 6 7 6 6 9 9 9 8 6 6 9 9
14 17 17 18 19 19 17 17 15 12 13 11 9 9 8 8 8 8 5 5 3 1 1 2 3 5 6 4 6 8 6 7 6 7 6 9 7 7 5 9 9 9 11
15 17 18 18 19 19 19 19 16 16 14 13 11 9 8 9 9 7 5 4 2 4 2 3 4 3 4 5 5 6 7 7 6 5 5 6 6 4 7 9 9 11 11
15 17 17 18 18 18 18 18 18 17 15 14 12 11 9 10 10 9 8 6 5 3 2 2 2 4 5 6 6 7 7 7 5 3 4 2 8 8 8 8 10 11 12
16 16 17 19 19 18 19 17 18 17 15 15 14 14 12 11 11 10 7 7 5 4 2 2 2 3 5 7 7 7 7 6 4 2 2 2 3 7 9 9 10 10 11
15 16 17 19 20 19 21 18 18 17 16 17 17 14 14 12 11 9 9 7 6 4 3 2 3 4 5 7 7 7 6 5 3 1 1 2 1 1 3 8 9 10 11
18 18 19 20 20 21 21 20 19 18 18 18 18 15 15 12 11 11 10 9 6 5 3 2 2 4 5 6 7 6 5 3 2 2 2 1 4 5 5 6 7 9 11
19 17 19 18 20 21 20 21 20 19 18 19 17 17 16 13 14 14 13 11 7 5 4 3 3 3 5 6 7 5 5 4 3 2 2 1 2 2 8 10 11 13 14
25 21 19 20 21 23 22 22 20 19 18 20 19 18 16 18 17 16 15 11 7 6 4 3 3 4 5 6 7 6 6 5 5 4 3 2 4 4 5 8 14 13 16
30 24 22 22 21 21 22 21 21 19 19 19 15 16 21 20 18 17 14 10 8 7 5 4 4 4 6 8 7 6 3 2 4 5 5 5 6 5 6 9 11 11 13
31 31 27 25 23 23 24 24 23 22 19 16 16 22 23 22 20 17 14 11 9 8 6 4 4 5 6 10 6 6 4 3 5 7 7 7 8 6 7 9 12 13 12
28 28 28 26 25 25 24 23 24 22 16 21 21 25 24 24 22 17 14 13 11 10 7 5 5 3 4 9 6 6 2 4 3 3 7 8 8 8 9 12 14 15 15
31 29 28 26 26 25 24 26 23 23 24 20 22 24 26 26 23 18 14 13 12 9 7 6 5 5 3 4 6 4 2 2 9 3 4 6 9 10 12 15 15 15 17
30 26 25 25 25 25 26 29 31 28 24 18 26 26 28 26 22 17 14 14 11 9 8 6 4 4 3 3 0 3 2 4 2 4 3 10 14 11 18 18 18 18 20
27 27 23 24 23 26 28 27 27 23 19 24 22 30 29 24 20 16 13 14 12 9 8 6 5 3 3 2 2 3 3 5 8 6 8 8 17 17 19 19 15 20 15
26 22 24 25 25 27 27 26 28 28 28 28 27 29 28 25 19 15 14 13 11 10 8 6 4 3 1 1 2 3 4 4 8 8 7 12 16 19 18 20 19 16 17
Wind_Direction
148 156 156 155 154 153 148 143 136 131 131 136 139 144 141 135 124 109 85 63 46 39 37 45 40 55 58 52 112 100 69 36 6 349 354 4 10 22 11 11 329 300 237
148 157 157 159 158 154 152 146 142 135 126 132 141 150 155 145 128 118 83 61 50 41 42 52 50 44 54 71 74 72 51 18 352 341 348 350 1 17 20 360 5 359 328
147 156 158 164 163 158 155 152 145 130 116 127 132 138 132 133 129 113 84 73 58 51 54 60 55 51 46 51 49 39 22 4 344 344 19 9 340 338 8 2 332 328 338
148 156 162 169 168 162 157 155 144 128 120 131 138 129 127 132 122 108 100 91 69 60 62 62 57 48 43 38 37 35 24 3 354 16 1 357 342 319 340 349 349 324 289
151 158 166 172 173 165 161 156 147 137 137 132 130 133 127 107 115 129 126 110 72 58 64 65 58 50 44 36 31 35 5 351 358 357 355 349 345 340 343 342 328 311 338
155 155 160 174 174 168 165 158 150 143 138 148 143 129 131 140 153 161 173 169 63 57 62 60 52 36 31 30 21 13 350 321 353 335 344 339 352 326 345 344 330 312 305
158 153 158 176 176 174 168 161 156 147 145 147 154 157 142 146 193 232 203 207 176 68 60 51 37 37 30 36 35 17 11 19 356 338 342 345 314 331 345 334 322 315 309
161 159 159 175 178 179 175 167 162 159 161 162 165 164 152 163 54 298 186 178 156 94 48 32 42 43 52 40 17 1 344 343 335 316 327 320 309 325 336 326 326 319 313
162 164 165 171 178 181 182 175 168 164 164 174 175 179 187 189 76 105 143 153 143 110 56 49 50 44 28 0 350 346 343 346 347 340 330 339 329 329 338 329 342 338 332
166 170 172 175 176 172 178 182 174 171 157 163 182 189 202 205 154 128 142 155 153 131 101 78 23 10 353 349 350 358 5 5 342 334 338 323 327 338 339 342 344 348 5
177 181 182 182 181 181 177 183 176 179 176 170 175 192 199 190 176 158 169 164 154 148 122 1 3 11 15 14 1 359 13 346 340 342 339 324 341 344 345 3 43 24 26
191 192 190 189 183 183 181 180 178 185 194 194 189 188 185 185 185 176 175 168 157 146 338 352 10 30 21 333 337 351 349 341 334 331 324 322 351 2 50 52 37 47 31
201 199 198 194 191 183 181 181 186 186 194 202 198 190 191 181 185 174 161 153 150 108 67 49 22 13 358 347 338 338 335 336 326 330 318 351 30 53 61 42 49 35 28
202 200 200 199 197 193 194 189 192 193 186 203 201 196 184 180 178 177 172 160 142 139 128 64 9 356 338 336 335 333 328 326 321 318 4 103 75 69 57 53 40 31 29
211 204 199 199 199 202 200 198 196 205 190 202 200 197 190 187 185 181 161 166 148 125 101 29 355 341 328 332 331 329 327 321 317 299 311 171 112 69 58 54 37 29 26
217 209 202 203 202 201 203 202 204 202 201 204 193 199 192 188 187 163 161 153 136 119 88 42 6 339 333 336 329 321 328 321 312 268 184 288 209 231 23 43 29 18 11
221 215 209 207 206 204 204 203 208 203 206 198 194 195 189 187 159 159 163 149 134 123 111 68 6 346 337 336 320 316 321 309 284 230 204 217 321 325 330 334 347 347 347
233 227 216 210 208 206 208 208 209 205 203 198 193 188 184 177 171 172 170 153 139 131 112 75 34 348 350 340 325 315 305 283 251 224 197 222 259 314 327 318 327 330 327
233 226 221 208 208 208 205 208 208 204 199 190 190 178 174 178 180 177 171 156 140 127 113 98 62 37 8 344 327 317 306 267 228 227 217 259 286 318 302 313 330 346 329
236 224 228 206 210 208 205 205 196 198 187 179 170 174 178 180 179 171 160 145 139 127 116 103 84 48 23 349 327 314 318 242 222 231 243 275 277 304 313 321 326 321 321
235 234 226 219 206 200 196 186 179 172 171 165 174 174 178 177 170 162 150 147 135 128 126 115 91 51 19 1 337 342 250 238 244 253 256 274 290 297 302 310 320 319 319
234 230 225 219 206 198 187 186 173 165 165 174 172 172 176 173 168 160 152 144 138 131 120 101 87 74 47 23 357 290 345 190 186 287 251 289 284 292 308 312 317 315 317
231 227 224 217 199 192 180 166 162 163 162 162 166 168 169 170 163 157 153 144 138 136 127 107 79 68 62 52 34 358 322 333 356 285 256 285 295 292 306 311 309 308 312
230 217 227 212 194 189 179 171 173 172 165 171 163 164 162 163 160 154 150 142 138 136 128 111 90 68 35 52 147 37 358 327 316 313 337 308 294 300 300 306 302 304 309
237 213 207 210 192 189 181 179 178 175 158 149 154 157 159 156 158 152 148 142 137 137 133 122 101 76 43 13 7 327 298 264 254 257 292 291 301 301 307 299 285 296 288
237 211 190 200 195 182 183 185 182 168 155 149 151 148 154 159 150 152 147 144 140 140 134 126 117 101 48 345 321 297 292 299 304 297 297 300 300 300 302 301 291 281 284